Tracking 20710 objects as of 30-May-2020
HD Live streaming from Space Station
objects crossing your sky now

CHINASAT-18

Track CHINASAT-18 now!


NORAD ID: 44493
Int'l Code: 2019-053A
Perigee: 191.5 km
Apogee: 35,348.1 km
Inclination: 28.8 °
Period: 622.1 minutes
Semi major axis: 24140 km
RCS: Unknown
Launch date: August 19, 2019
Source: People's Republic of China (PRC)
Launch site: Xichang Space Center, China (XSC)
aabbcc
Your satellite tracking list
Your tracking list is empty




NASA's NSSDC Master Catalog

Two Line Element Set (TLE):
1 44493U 19053A   20150.99817968  .00004776  98159-6  29989-3 0  9999
2 44493  28.8009  39.1559 7281584 351.9696   0.9973  2.31459763  6519
Source of the keplerian elements: AFSPC